FW0151 Weather Reports


time (UTC)temp
F
wind
direction
speed
knots
gust
knots
rain 1hr
in
rain 24hr
in
rain mn
in
humidity
%
barometer
mb
20260510093518 60 23 7.8 20.0 0.00 0.00 0.00 67 1013.8
20260510092518 60 45 4.3 13.9 0.00 0.00 0.00 64 1014.0
20260510091520 60 45 0.9 13.0 0.00 0.00 0.00 66 1014.1
20260510090520 59 45 4.3 16.5 0.00 0.00 0.00 64 1014.2
20260510085520 59 45 6.1 15.6 0.00 0.00 0.00 64 1014.1
20260510084540 59 45 7.0 15.6 0.00 0.00 0.00 65 1014.0
20260510083518 59 23 8.7 13.9 0.00 0.00 0.00 65 1014.0
20260510082638 59 45 3.5 14.8 0.00 0.00 0.00 64 1014.1
20260510081518 59 23 9.6 18.2 0.00 0.00 0.00 66 1014.1
20260510080518 59 45 2.6 12.2 0.00 0.00 0.00 67 1014.3
20260510075518 58 45 4.3 13.9 0.00 0.00 0.00 68 1014.5
20260510074518 58 45 3.5 13.0 0.00 0.00 0.00 69 1014.6
20260510073520 58 45 5.2 13.0 0.00 0.00 0.00 70 1014.7
20260510072518 57 45 4.3 13.9 0.00 0.00 0.00 71 1014.8
20260510071539 57 23 2.6 12.2 0.00 0.00 0.00 73 1014.8
20260510070518 56 0.0 1.7 0.00 0.00 0.00 75 1014.9
20260510065518 56 45 6.1 13.0 0.00 0.00 0.00 76 1015.0
20260510064518 56 45 0.9 8.7 0.00 0.00 0.00 78 1015.0
20260510063518 55 23 3.5 10.4 0.00 0.00 0.00 79 1015.0
20260510062538 55 45 3.5 10.4 0.00 0.00 0.00 82 1015.0
20260510061538 54 23 1.7 7.8 0.00 0.00 0.00 84 1015.0
20260510060556 54 45 0.9 8.7 0.00 0.00 0.00 85 1014.9
20260510055520 53 0.0 6.1 0.00 0.00 0.00 87 1014.9
20260510054518 52 0.0 0.0 0.00 0.00 0.00 88 1014.9
20260510053518 52 0.0 0.0 0.00 0.00 0.00 89 1015.0
20260510052516 51 0.0 0.0 0.00 0.00 0.00 90 1014.9
20260510051518 51 0.0 0.0 0.00 0.00 0.00 90 1014.9
20260510050520 50 0.0 0.0 0.00 0.00 0.00 90 1014.8
20260510045536 50 0.0 0.0 0.00 0.00 0.00 90 1014.8
20260510044516 50 0.0 0.0 0.00 0.00 0.00 90 1014.9
20260510043518 50 0.0 0.0 0.00 0.00 0.00 89 1014.9
20260510042553 50 0.0 0.0 0.00 0.00 0.00 89 1014.9
20260510041519 50 0.0 0.9 0.00 0.00 0.00 88 1014.8
20260510040516 51 0.0 0.0 0.00 0.00 0.00 88 1014.7
20260510035517 51 0.0 0.0 0.00 0.00 0.00 88 1014.7
20260510034516 51 0.0 0.0 0.00 0.00 0.00 88 1014.8
20260510033516 51 0.0 0.0 0.00 0.00 0.00 89 1014.7
20260510032516 51 0.0 0.0 0.00 0.00 0.00 89 1014.6
20260510031516 51 0.0 3.5 0.00 0.00 0.00 89 1014.6
20260510030516 51 0.0 0.0 0.00 0.00 0.00 89 1014.7
20260510025518 51 0.0 0.9 0.00 0.00 0.00 89 1014.7
20260510024519 51 0.0 0.0 0.00 0.00 0.00 89 1014.8
20260510023518 51 0.0 0.0 0.00 0.00 0.00 89 1014.7
20260510022519 50 0.0 0.0 0.00 0.00 0.00 89 1014.8
20260510021517 50 0.0 0.0 0.00 0.00 0.00 89 1014.9
20260510020516 50 0.0 0.0 0.00 0.00 0.00 89 1015.0
20260510015536 50 0.0 0.0 0.00 0.00 0.00 88 1015.1
20260510014516 50 0.0 0.0 0.00 0.00 0.00 88 1015.1
20260510013516 50 0.0 0.0 0.00 0.00 0.00 87 1015.1
20260510012556 50 0.0 0.0 0.00 0.00 0.00 87 1015.1
20260510011518 50 0.0 0.0 0.00 0.00 0.00 86 1015.1
20260510010516 50 0.0 0.0 0.00 0.00 0.00 86 1015.1
20260510005536 50 0.0 0.0 0.00 0.00 0.00 86 1015.3
20260510004536 50 0.0 0.0 0.00 0.00 0.00 85 1015.4
20260510003516 50 0.0 0.0 0.00 0.00 0.00 85 1015.5
20260510002516 51 0.0 0.0 0.00 0.00 0.00 84 1015.6
20260510001516 51 0.0 0.0 0.00 0.00 0.00 84 1015.7
20260510000516 51 0.0 0.9 0.00 0.00 0.00 84 1015.7
20260509235516 52 0.0 0.0 0.00 0.00 0.00 83 1015.8
20260509234516 52 0.0 0.0 0.00 0.00 0.00 83 1015.7
20260509233517 52 0.0 0.0 0.00 0.00 0.00 83 1015.9
20260509232518 52 0.0 0.0 0.00 0.00 0.00 83 1016.0
20260509231516 52 0.0 0.0 0.00 0.00 0.00 83 1016.0
20260509230517 52 0.0 0.9 0.00 0.00 0.00 83 1015.9
20260509225516 52 0.0 0.9 0.00 0.00 0.00 83 1015.9
20260509224518 52 0.0 0.9 0.00 0.00 0.00 82 1016.0
20260509223518 53 0.0 1.7 0.00 0.00 0.00 82 1016.0
20260509222516 53 0.0 0.9 0.00 0.00 0.00 82 1016.0
20260509221516 53 0.0 0.0 0.00 0.00 0.00 81 1016.0
20260509220518 53 0.0 0.0 0.00 0.00 0.00 81 1016.0
20260509215516 53 45 3.5 5.2 0.00 0.00 0.00 80 1015.9
20260509214516 53 23 4.3 7.8 0.00 0.00 0.00 80 1015.8
20260509213517 53 23 3.5 6.1 0.00 0.00 0.00 79 1015.8
20260509212516 54 45 3.5 6.1 0.00 0.00 0.00 78 1015.9
20260509211516 54 23 4.3 7.8 0.00 0.00 0.00 77 1015.9
20260509210516 54 23 4.3 7.8 0.00 0.00 0.00 77 1015.9
20260509205517 54 23 4.3 7.0 0.00 0.00 0.00 76 1015.8
20260509204557 54 23 3.5 7.0 0.00 0.00 0.00 75 1015.8
20260509203516 55 23 4.3 7.0 0.00 0.00 0.00 75 1015.8
20260509202516 55 45 3.5 7.0 0.00 0.00 0.00 74 1015.7
20260509201517 55 23 3.5 6.1 0.00 0.00 0.00 74 1015.7
20260509200519 55 23 3.5 5.2 0.00 0.00 0.00 73 1015.7
20260509195519 56 23 4.3 7.8 0.00 0.00 0.00 73 1015.6
20260509194519 56 23 4.3 7.8 0.00 0.00 0.00 72 1015.5
20260509193517 56 23 5.2 10.4 0.00 0.00 0.00 71 1015.5
20260509192537 57 23 5.2 10.4 0.00 0.00 0.00 71 1015.4
20260509191558 57 23 5.2 8.7 0.00 0.00 0.00 70 1015.3
20260509190516 58 23 4.3 7.0 0.00 0.00 0.00 70 1015.3
20260509185516 58 23 5.2 8.7 0.00 0.00 0.00 70 1015.2
20260509184516 59 23 5.2 10.4 0.00 0.00 0.00 68 1015.2
20260509183516 59 45 7.0 11.3 0.00 0.00 0.00 67 1015.3
20260509182538 60 45 6.1 10.4 0.00 0.00 0.00 66 1015.2
20260509181516 61 45 7.8 13.0 0.00 0.00 0.00 65 1015.2
20260509180521 61 23 7.0 13.0 0.00 0.00 0.00 64 1015.2
20260509175518 62 23 7.8 13.9 0.00 0.00 0.00 63 1015.2
20260509174518 62 23 8.7 15.6 0.00 0.00 0.00 62 1015.2
20260509173520 63 45 8.7 13.9 0.00 0.00 0.00 60 1015.1
20260509172523 63 45 7.8 12.2 0.00 0.00 0.00 60 1015.0
20260509171517 63 23 8.7 15.6 0.00 0.00 0.00 62 1014.9
20260509170516 64 45 6.1 12.2 0.00 0.00 0.00 62 1014.8
20260509165618 64 23 7.8 13.0 0.00 0.00 0.00 62 1014.8
20260509164516 65 23 7.0 13.9 0.00 0.00 0.00 61 1014.9
20260509163538 65 23 7.8 17.4 0.00 0.00 0.00 61 1014.9
20260509162517 65 23 7.8 15.6 0.00 0.00 0.00 60 1014.9
20260509161519 66 23 7.8 13.9 0.00 0.00 0.00 61 1015.0
20260509160519 66 23 9.6 16.5 0.00 0.00 0.00 60 1014.9
20260509155537 67 23 8.7 14.8 0.00 0.00 0.00 58 1015.0
20260509154518 67 23 6.1 11.3 0.00 0.00 0.00 59 1015.0
20260509153518 67 23 8.7 14.8 0.00 0.00 0.00 59 1015.0
20260509152518 67 23 8.7 16.5 0.00 0.00 0.00 58 1015.1
20260509151517 66 23 8.7 15.6 0.00 0.00 0.00 59 1015.0
20260509150516 68 23 8.7 14.8 0.00 0.00 0.00 58 1014.9
20260509145538 68 23 8.7 14.8 0.00 0.00 0.00 58 1014.6
20260509144517 68 23 7.8 12.2 0.00 0.00 0.00 60 1014.7
20260509143517 68 23 7.0 13.9 0.00 0.00 0.00 58 1014.7
20260509142516 69 23 3.5 11.3 0.00 0.00 0.00 55 1014.9
20260509141517 69 23 6.1 10.4 0.00 0.00 0.00 49 1014.9
20260509140518 71 45 2.6 10.4 0.00 0.00 0.00 48 1014.9
20260509135518 70 68 0.9 7.0 0.00 0.00 0.00 47 1015.0
20260509134524 69 23 0.9 7.0 0.00 0.00 0.00 48 1015.0
20260509133518 69 68 3.5 8.7 0.00 0.00 0.00 49 1015.1
20260509132516 70 0.0 2.6 0.00 0.00 0.00 47 1015.2
20260509131536 71 0.0 0.9 0.00 0.00 0.00 48 1015.3
20260509130516 71 0.0 0.9 0.00 0.00 0.00 51 1015.3
20260509125516 70 0.0 0.0 0.00 0.00 0.00 48 1015.4
20260509124519 70 0.0 0.9 0.00 0.00 0.00 48 1015.4
20260509123518 69 0.0 0.0 0.00 0.00 0.00 52 1015.5
20260509122518 69 0.0 2.6 0.00 0.00 0.00 50 1015.7
20260509121559 68 0.0 3.5 0.00 0.00 0.00 50 1015.8
20260509120516 69 68 1.7 9.6 0.00 0.00 0.00 49 1015.9
20260509115516 69 68 3.5 7.8 0.00 0.00 0.00 52 1016.0
20260509114516 68 45 4.3 8.7 0.00 0.00 0.00 51 1016.1
20260509113518 69 23 1.7 10.4 0.00 0.00 0.00 51 1016.3
20260509112517 68 68 6.1 11.3 0.00 0.00 0.00 53 1016.4
20260509111517 69 68 5.2 8.7 0.00 0.00 0.00 50 1016.5
20260509110516 69 90 5.2 8.7 0.00 0.00 0.00 51 1016.6
20260509105558 68 90 4.3 8.7 0.00 0.00 0.00 52 1016.5
20260509104517 68 68 6.1 11.3 0.00 0.00 0.00 53 1016.8
20260509103516 68 68 5.2 11.3 0.00 0.00 0.00 52 1016.8
20260509102518 68 68 6.1 10.4 0.00 0.00 0.00 55 1016.9
20260509101516 67 45 6.1 12.2 0.00 0.00 0.00 54 1016.9
20260509100516 67 45 6.1 10.4 0.00 0.00 0.00 54 1016.9
20260509095516 67 45 5.2 10.4 0.00 0.00 0.00 54 1016.9
20260509094521 66 68 7.0 11.3 0.00 0.00 0.00 56 1016.9